Regional Weather Roundup
Issued by NWS Little Rock, AR

Home | Current Version | Previous Version | Graphics & Text | Print | Product List | Glossary On
Versions: 1 2 3 4 5 6 7 8 9 10 11 12 13 14 15 16 17 18 19 20 21 22 23 24 25 26 27 28 29 30 31 32 33 34 35 36 37 38 39 40 41 42 43 44 45 46 47 48 49 50
000
ASUS44 KLZK 091205
RWRLZK

WEATHER ROUNDUP FOR ARKANSAS
NATIONAL WEATHER SERVICE LITTLE ROCK AR
600 AM CST FRI DEC 09 2016

NOTE: "FAIR" INDICATES FEW OR NO CLOUDS BELOW 12,000 FEET WITH NO
SIGNIFICANT WEATHER AND/OR OBSTRUCTIONS TO VISIBILITY.

ARZ001-003-010-029-091300-
NORTHWEST ARKANSAS

CITY           SKY/WX    TMP DP  RH WIND       PRES   REMARKS
FAYETTEVILLE   CLOUDY    11  10  96 CALM      30.63S
6HR MIN TEMP:  11; 6HR MAX TEMP:  19;

FORT SMITH     CLOUDY    21  14  74 CALM      30.69R
6HR MIN TEMP:  19; 6HR MAX TEMP:  25;

HARRISON       CLOUDY    14  11  87 W3        30.62R
6HR MIN TEMP:  14; 6HR MAX TEMP:  18;

BENTONVILLE    CLOUDY    16   9  73 CALM      30.62F
6HR MIN TEMP:  16; 6HR MAX TEMP:  19;

ROGERS         CLOUDY    13  10  88 CALM      30.63S
6HR MIN TEMP:  13; 6HR MAX TEMP:  19;

SILOAM SPGS    CLOUDY    14   9  79 CALM      30.63S
6HR MIN TEMP:  14; 6HR MAX TEMP:  18;

HIGHFILL       PTCLDY    15  10  80 N5        30.62S WCI   8
6HR MIN TEMP:  12; 6HR MAX TEMP:  18;

SPRINGDALE     CLEAR     16  12  86 CALM      30.63
$$

ARZ004-005-016-091300-
NORTH CENTRAL ARKANSAS

CITY           SKY/WX    TMP DP  RH WIND       PRES   REMARKS
BATESVILLE     PTCLDY    19  12  73 NW3       30.67S
6HR MIN TEMP:  19; 6HR MAX TEMP:  27;

FLIPPIN        CLEAR     19  10  68 NW5       30.62S WCI  13
6HR MIN TEMP:  19; 6HR MAX TEMP:  25;

MTN HOME       CLEAR     15  13  91 CALM      30.63S
6HR MIN TEMP:  15; 6HR MAX TEMP:  22;

$$

ARZ040-041-091300-
WEST CENTRAL ARKANSAS

CITY           SKY/WX    TMP DP  RH WIND       PRES   REMARKS
MENA           CLOUDY    21  19  93 CALM      30.63R
MOUNT IDA      PTCLDY    19  15  84 CALM      30.63R
6HR MIN TEMP:  19; 6HR MAX TEMP:  27;

$$

ARZ009-017-025-026-028-091300-
NORTHEAST ARKANSAS

CITY           SKY/WX    TMP DP  RH WIND       PRES   REMARKS
CORNING        FAIR      21  16  79 NW5       30.67F WCI  15
JONESBORO      CLEAR     24  14  65 N5        30.66S WCI  18
6HR MIN TEMP:  23; 6HR MAX TEMP:  28;

NEWPORT        CLEAR     20  16  84 NW8       30.68S WCI  10
6HR MIN TEMP:  20; 6HR MAX TEMP:  26;

WALNUT RIDGE   CLEAR     19  12  73 NW8       30.66F WCI   9
6HR MIN TEMP:  19; 6HR MAX TEMP:  27;

BLYTHEVILLE    CLEAR     22  17  81 NW7       30.67R WCI  13
6HR MIN TEMP:  22; 6HR MAX TEMP:  27;

$$

ARZ022-023-033-042-044-091300-
CENTRAL ARKANSAS

CITY           SKY/WX    TMP DP  RH WIND       PRES   REMARKS
LITTLE ROCK    CLEAR     21  16  81 N7        30.69R WCI  12
6HR MIN TEMP:  21; 6HR MAX TEMP:  28;

N LITTLE ROCK    N/A     22  15  74 N3        30.71R
6HR MIN TEMP:  22; 6HR MAX TEMP:  27;

JACKSONVILLE   CLEAR     20  16  83 NW3       30.68R
6HR MIN TEMP:  20; 6HR MAX TEMP:  28;

SEARCY         CLEAR     20  17  88 CALM      30.71R
6HR MIN TEMP:  20; 6HR MAX TEMP:  27;

HOT SPRINGS    CLEAR     26  14  60 CALM      30.67R
6HR MIN TEMP:  24; 6HR MAX TEMP:  30;

RUSSELLVILLE   CLEAR     21  14  74 NE3       30.68R
6HR MIN TEMP:  18; 6HR MAX TEMP:  26;

CLINTON        FAIR      18  16  93 CALM      30.69R
$$

ARZ036-091300-
EAST ARKANSAS

CITY           SKY/WX    TMP DP  RH WIND       PRES   REMARKS
WEST MEMPHIS   CLEAR     23  16  74 N5        30.65R WCI  17
6HR MIN TEMP:  23; 6HR MAX TEMP:  29;

$$

ARZ050-053-066-070-073-091300-
SOUTHWEST ARKANSAS

CITY           SKY/WX    TMP DP  RH WIND       PRES   REMARKS
ARKADELPHIA    FAIR      24  19  81 NE6       30.69R WCI  17
6HR MIN TEMP:  22; 6HR MAX TEMP:  26;

CAMDEN         CLEAR     21  18  86 CALM      30.68R
TEXARKANA      CLOUDY    24  18  77 NE3       30.65S
6HR MIN TEMP:  23; 6HR MAX TEMP:  29;

EL DORADO      CLEAR     24  19  81 N3        30.66R
6HR MIN TEMP:  24; 6HR MAX TEMP:  28;

DE QUEEN       CLOUDY    20  18  92 CALM      30.65R
6HR MIN TEMP:  19; 6HR MAX TEMP:  24;

$$

ARZ056-057-069-091300-
SOUTHEAST ARKANSAS

CITY           SKY/WX    TMP DP  RH WIND       PRES   REMARKS
PINE BLUFF     CLEAR     26  18  71 N8        30.68R WCI  18
6HR MIN TEMP:  25; 6HR MAX TEMP:  29;

STUTTGART      CLEAR     25  14  63 N10       30.68R WCI  15
6HR MIN TEMP:  25; 6HR MAX TEMP:  28;

MONTICELLO     CLEAR     26  17  68 NE3       30.66R
6HR MIN TEMP:  26; 6HR MAX TEMP:  30;


$$





USA.gov is the U.S. government's official web portal to all federal, state and local government web resources and services.